Location: Unspecified
(0.0000°N, 0.0000°E)
Time: 13:34:06
(UTC+00:00)

Tiros 1 despin weight - Visible Passes

Search period start: 09 December 2016 00:00
Search period end: 19 December 2016 00:00
Orbit: 595 x 644 km, 48.2° (Epoch: 08 December)

Date Brightness Start Highest point End Pass type
(mag) Time Alt. Az. Time Alt. Az. Time Alt. Az.
09 Dec ? 03:52:12 12° NNE 03:53:30 13° NE 03:55:34 10° ENE visible
10 Dec ? 04:09:12 27° NNE 04:10:38 33° NE 04:14:50 10° ESE visible
11 Dec ? 04:26:11 43° NW 04:27:41 89° WSW 04:32:24 10° SE visible
12 Dec ? 03:05:59 13° E 03:05:59 13° E 03:06:43 10° E visible
12 Dec ? 04:43:07 25° W 04:44:45 32° SW 04:48:57 10° SSE visible
13 Dec ? 03:22:51 25° ESE 03:22:51 25° ESE 03:24:58 10° SE visible
13 Dec ? 05:00:00 10° WSW 05:01:54 13° SW 05:03:55 10° SSW visible
14 Dec ? 03:39:40 28° SSE 03:39:40 28° SSE 03:42:03 10° SSE visible
15 Dec ? 03:56:24 17° SSW 03:56:24 17° SSW 03:58:05 10° S visible
